Location: D�nning
(49.2479°N, 12.8491°E)
Time: 05:59:05
(UTC+00:00)

Cosmos 1025 Rocket - Pass Details

Date: 18 September 2020
Orbit: 595 x 617 km, 82.5° (Epoch: 27 October)

Event Time Altitude Azimuth Distance (km) Brightness Sun altitude
Rises 18:45:22 0° 349° (N) 2,886 6.9 -15.3°
Reaches altitude 10° 18:47:35 10° 350° (N) 1,980 6.1 -15.6°
Maximum altitude 18:51:59 88° 262° (W) 622 3.0 -16.3°
Enters shadow 18:56:08 12° 173° (S) 1,876 5.2 -16.9°
